Location: Unspecified
(0.0000°N, 0.0000°E)
Time: 13:44:16
(UTC+00:00)

N. Korean satellite - Pass Details

Date: 28 May 2019
Orbit: 455 x 510 km, 97.2° (Epoch: 16 June)

Event Time Altitude Azimuth Distance (km) Brightness Sun altitude
Rises 05:03:05 0° 37° (NE) 2,456 11.2 -12.6°
Reaches altitude 10° 05:05:35 10° 57° (ENE) 1,585 10.6 -12.0°
Maximum altitude 05:07:56 18° 101° (E) 1,192 9.4 -11.5°
Drops below altitude 10° 05:10:18 10° 145° (SE) 1,593 9.3 -10.9°
Sets 05:12:49 0° 165° (SSE) 2,473 10.1 -10.3°
